Location: Unspecified
(0.0000°N, 0.0000°E)
Time: 11:51:10
(UTC+00:00)

Vanguard 2 Rocket - Pass Details

Date: 10 December 2017
Orbit: 553 x 3328 km, 32.9° (Epoch: 24 June)

Event Time Altitude Azimuth Distance (km) Brightness Sun altitude
Exits shadow 05:28:07 - 295° (WNW) 5,738 10.3 -5.7°
Reaches altitude 10° 05:30:04 10° 294° (WNW) 5,193 10.1 -5.2°
Maximum altitude 05:43:22 54° 220° (SW) 1,923 8.5 -2.2°
Drops below altitude 10° 05:50:52 10° 143° (SE) 3,013 10.7 -0.4°
Sets 05:53:05 0° 138° (SE) 3,715 11.4 0.1°
